Location: Caltech
(34.1382°N, 118.1253°W)
Time: 21:42:46
(UTC-07:00)

Cosmos 1758 Rocket - Visible Passes

Search period start: 21 April 2018 00:00
Search period end: 01 May 2018 00:00
Orbit: 602 x 636 km, 82.5° (Epoch: 21 April)

Date Brightness Start Highest point End Pass type
(mag) Time Alt. Az. Time Alt. Az. Time Alt. Az.
21 Apr 4.8 04:54:36 10° SSE 04:58:40 42° E 05:02:46 10° NNE visible
22 Apr 3.5 05:11:41 10° S 05:15:59 89° SE 05:20:21 10° N visible
23 Apr 6.5 03:54:35 10° ESE 03:56:03 12° E 03:57:30 10° ENE visible
23 Apr 3.9 05:29:18 10° SSW 05:33:25 43° W 05:37:34 10° N visible
24 Apr 5.8 04:09:48 10° SE 04:13:12 23° E 04:16:37 10° NE visible
25 Apr 4.5 04:26:33 11° SSE 04:30:26 46° E 04:34:36 10° NNE visible
26 Apr 3.4 04:44:28 17° S 04:47:46 85° W 04:52:09 10° N visible
27 Apr 6.4 03:25:58 10° ESE 03:27:48 12° E 03:29:38 10° ENE visible
27 Apr 4.0 05:02:18 17° SW 05:05:12 40° W 05:09:20 10° N visible
28 Apr 5.6 03:42:54 17° SE 03:44:58 25° E 03:48:30 10° NE visible
28 Apr 4.9 05:20:05 13° WSW 05:22:44 21° WNW 05:26:04 10° NNW visible
29 Apr 4.3 04:00:39 33° SSE 04:02:12 49° E 04:06:26 10° NNE visible
30 Apr 3.4 04:18:20 47° SSW 04:19:34 79° W 04:23:57 10° N visible
